Time,TemperatureF,DewpointF,PressureIn,WindDirection,WindDirectionDegrees,WindSpeedMPH,WindSpeedGustMPH,Humidity,HourlyPrecipIn,Conditions,Clouds,dailyrainin,SoftwareType,DateUTC
2013-03-08 00:02:00,33.0,22.0,-100.00,NNW,335,1.0,4.0,64,0.00,,,-99.99,,2013-03-08 05:02:00,
2013-03-08 00:12:00,33.0,22.0,-100.00,NNW,340,1.0,3.0,64,0.00,,,-99.99,,2013-03-08 05:12:00,
2013-03-08 00:22:00,33.0,23.0,-100.00,North,355,1.0,3.0,66,0.00,,,-99.99,,2013-03-08 05:22:00,
2013-03-08 00:33:00,33.0,23.0,-100.00,NNW,345,2.0,4.0,67,0.00,,,-99.99,,2013-03-08 05:33:00,
2013-03-08 00:42:00,33.0,23.0,-100.00,NNW,335,0.0,3.0,67,0.00,,,-99.99,,2013-03-08 05:42:00,
2013-03-08 00:52:00,32.0,23.0,-100.00,NNW,335,1.0,2.0,67,0.00,,,-99.99,,2013-03-08 05:52:00,
2013-03-08 01:02:00,32.0,23.0,-100.00,NNW,330,0.0,1.0,67,0.00,,,-99.99,,2013-03-08 06:02:00,
2013-03-08 01:11:00,32.0,23.0,-100.00,WNW,300,0.0,1.0,68,0.00,,,-99.99,,2013-03-08 06:11:00,
2013-03-08 01:22:00,32.0,23.0,-100.00,North,10,1.0,3.0,69,0.00,,,-99.99,,2013-03-08 06:22:00,
2013-03-08 01:32:00,32.0,23.0,-100.00,NNW,345,0.0,2.0,69,0.00,,,-99.99,,2013-03-08 06:32:00,
2013-03-08 01:42:00,32.0,23.0,-100.00,NNW,345,0.0,2.0,69,0.00,,,-99.99,,2013-03-08 06:42:00,
2013-03-08 01:51:00,32.0,23.0,-100.00,North,0,0.0,1.0,68,0.00,,,-99.99,,2013-03-08 06:51:00,
2013-03-08 02:01:00,32.0,23.0,-100.00,North,355,1.0,2.0,70,0.00,,,-99.99,,2013-03-08 07:01:00,
2013-03-08 02:11:00,32.0,23.0,-100.00,North,10,1.0,3.0,69,0.00,,,-99.99,,2013-03-08 07:11:00,
2013-03-08 02:22:00,32.0,23.0,-100.00,North,10,1.0,2.0,69,0.00,,,-99.99,,2013-03-08 07:22:00,
2013-03-08 02:32:00,32.0,23.0,-100.00,North,5,1.0,1.0,70,0.00,,,-99.99,,2013-03-08 07:32:00,
2013-03-08 02:42:00,31.0,23.0,-100.00,NW,305,1.0,2.0,71,0.00,,,-99.99,,2013-03-08 07:42:00,
2013-03-08 02:51:00,32.0,23.0,-100.00,North,10,1.0,3.0,71,0.00,,,-99.99,,2013-03-08 07:51:00,
2013-03-08 03:01:00,31.0,24.0,-100.00,North,0,1.0,2.0,72,0.00,,,-99.99,,2013-03-08 08:01:00,
2013-03-08 03:11:00,31.0,24.0,-100.00,North,10,1.0,3.0,72,0.00,,,-99.99,,2013-03-08 08:11:00,
2013-03-08 03:22:00,31.0,24.0,-100.00,NNE,20,1.0,2.0,73,0.00,,,-99.99,,2013-03-08 08:22:00,
2013-03-08 03:32:00,30.0,23.0,-100.00,NNW,340,1.0,2.0,75,0.00,,,-99.99,,2013-03-08 08:32:00,
2013-03-08 03:42:00,30.0,24.0,-100.00,North,350,0.0,2.0,76,0.00,,,-99.99,,2013-03-08 08:42:00,
2013-03-08 03:52:00,30.0,24.0,-100.00,North,5,1.0,2.0,76,0.00,,,-99.99,,2013-03-08 08:52:00,
2013-03-08 04:03:00,30.0,24.0,-100.00,North,0,1.0,3.0,77,0.00,,,-99.99,,2013-03-08 09:03:00,
2013-03-08 04:11:00,29.0,23.0,-100.00,North,350,0.0,2.0,79,0.00,,,-99.99,,2013-03-08 09:11:00,
2013-03-08 04:21:00,28.0,23.0,-100.00,NNW,330,0.0,1.0,80,0.00,,,-99.99,,2013-03-08 09:21:00,
2013-03-08 04:32:00,28.0,23.0,-100.00,NNW,330,0.0,1.0,80,0.00,,,-99.99,,2013-03-08 09:32:00,
2013-03-08 04:42:00,27.0,23.0,-100.00,NNW,335,0.0,0.0,82,0.00,,,-99.99,,2013-03-08 09:42:00,
2013-03-08 04:52:00,27.0,23.0,-100.00,NNW,340,0.0,0.0,84,0.00,,,-99.99,,2013-03-08 09:52:00,
2013-03-08 05:01:00,28.0,24.0,-100.00,North,355,2.0,3.0,84,0.00,,,-99.99,,2013-03-08 10:01:00,
2013-03-08 05:11:00,28.0,23.0,-100.00,NNW,345,1.0,3.0,84,0.00,,,-99.99,,2013-03-08 10:11:00,
2013-03-08 05:21:00,27.0,23.0,-100.00,NNW,345,0.0,1.0,84,0.00,,,-99.99,,2013-03-08 10:21:00,
2013-03-08 05:32:00,28.0,24.0,-100.00,NNW,345,1.0,3.0,85,0.00,,,-99.99,,2013-03-08 10:32:00,
2013-03-08 05:42:00,27.0,23.0,-100.00,North,0,2.0,3.0,86,0.00,,,-99.99,,2013-03-08 10:42:00,
2013-03-08 05:51:00,27.0,23.0,-100.00,North,0,1.0,3.0,85,0.00,,,-99.99,,2013-03-08 10:51:00,
2013-03-08 06:01:00,26.0,23.0,-100.00,North,0,1.0,3.0,85,0.00,,,-99.99,,2013-03-08 11:01:00,
2013-03-08 06:11:00,26.0,22.0,-100.00,NNW,345,0.0,2.0,86,0.00,,,-99.99,,2013-03-08 11:11:00,
2013-03-08 06:21:00,26.0,23.0,-100.00,NNW,345,0.0,1.0,87,0.00,,,-99.99,,2013-03-08 11:21:00,
2013-03-08 06:32:00,25.0,22.0,-100.00,NNE,15,0.0,1.0,87,0.00,,,-99.99,,2013-03-08 11:32:00,
2013-03-08 06:42:00,26.0,22.0,-100.00,North,0,1.0,4.0,86,0.00,,,-99.99,,2013-03-08 11:42:00,
2013-03-08 06:52:00,25.0,22.0,-100.00,NNE,30,1.0,4.0,86,0.00,,,-99.99,,2013-03-08 11:52:00,
2013-03-08 07:02:00,25.0,22.0,-100.00,North,0,1.0,2.0,88,0.00,,,-99.99,,2013-03-08 12:02:00,
2013-03-08 07:11:00,25.0,22.0,-100.00,North,0,1.0,3.0,88,0.00,,,-99.99,,2013-03-08 12:11:00,
2013-03-08 07:22:00,26.0,23.0,-100.00,North,10,1.0,3.0,87,0.00,,,-99.99,,2013-03-08 12:22:00,
2013-03-08 07:32:00,25.0,22.0,-100.00,North,350,0.0,4.0,87,0.00,,,-99.99,,2013-03-08 12:32:00,
2013-03-08 07:43:00,26.0,22.0,-100.00,North,350,0.0,0.0,87,0.00,,,-99.99,,2013-03-08 12:43:00,
2013-03-08 07:52:00,27.0,23.0,-100.00,NNW,345,0.0,1.0,86,0.00,,,-99.99,,2013-03-08 12:52:00,
2013-03-08 08:02:00,28.0,24.0,-100.00,NW,305,0.0,0.0,84,0.00,,,-99.99,,2013-03-08 13:02:00,
2013-03-08 08:11:00,30.0,25.0,-100.00,SE,135,0.0,0.0,78,0.00,,,-99.99,,2013-03-08 13:11:00,
2013-03-08 08:22:00,31.0,24.0,-100.00,North,10,0.0,0.0,77,0.00,,,-99.99,,2013-03-08 13:22:00,
2013-03-08 08:32:00,30.0,24.0,-100.00,North,0,0.0,4.0,76,0.00,,,-99.99,,2013-03-08 13:32:00,
2013-03-08 08:42:00,31.0,23.0,-100.00,NNW,335,1.0,6.0,74,0.00,,,-99.99,,2013-03-08 13:42:00,
2013-03-08 08:52:00,31.0,23.0,-100.00,NNE,15,2.0,4.0,70,0.00,,,-99.99,,2013-03-08 13:52:00,
2013-03-08 09:03:00,32.0,23.0,-100.00,North,5,2.0,4.0,69,0.00,,,-99.99,,2013-03-08 14:03:00,
2013-03-08 09:11:00,32.0,22.0,-100.00,NNE,20,2.0,6.0,65,0.00,,,-99.99,,2013-03-08 14:11:00,
2013-03-08 09:22:00,33.0,21.0,-100.00,North,0,4.0,6.0,61,0.00,,,-99.99,,2013-03-08 14:22:00,
2013-03-08 09:32:00,33.0,21.0,-100.00,North,5,5.0,8.0,60,0.00,,,-99.99,,2013-03-08 14:32:00,
2013-03-08 09:42:00,33.0,20.0,-100.00,North,10,6.0,8.0,58,0.00,,,-99.99,,2013-03-08 14:42:00,
2013-03-08 09:52:00,33.0,20.0,-100.00,NNE,30,5.0,8.0,57,0.00,,,-99.99,,2013-03-08 14:52:00,
2013-03-08 10:03:00,34.0,21.0,-100.00,NE,40,6.0,9.0,56,0.00,,,-99.99,,2013-03-08 15:03:00,
2013-03-08 10:12:00,35.0,20.0,-100.00,ENE,70,5.0,11.0,55,0.00,,,-99.99,,2013-03-08 15:12:00,
2013-03-08 10:22:00,35.0,20.0,-100.00,NE,35,6.0,9.0,55,0.00,,,-99.99,,2013-03-08 15:22:00,
2013-03-08 10:32:00,35.0,20.0,-100.00,NNE,30,4.0,9.0,54,0.00,,,-99.99,,2013-03-08 15:32:00,
2013-03-08 10:42:00,35.0,21.0,-100.00,NE,45,5.0,9.0,54,0.00,,,-99.99,,2013-03-08 15:42:00,
2013-03-08 10:53:00,36.0,21.0,-100.00,ENE,60,4.0,9.0,54,0.00,,,-99.99,,2013-03-08 15:53:00,
2013-03-08 11:01:00,36.0,20.0,-100.00,ENE,65,4.0,9.0,53,0.00,,,-99.99,,2013-03-08 16:01:00,
2013-03-08 11:11:00,35.0,20.0,-100.00,NE,35,4.0,10.0,53,0.00,,,-99.99,,2013-03-08 16:11:00,
2013-03-08 11:22:00,35.0,20.0,-100.00,NE,35,4.0,10.0,53,0.00,,,-99.99,,2013-03-08 16:22:00,
2013-03-08 11:32:00,36.0,22.0,-100.00,ENE,65,4.0,9.0,54,0.00,,,-99.99,,2013-03-08 16:32:00,
2013-03-08 11:42:00,37.0,22.0,-100.00,NE,50,4.0,8.0,54,0.00,,,-99.99,,2013-03-08 16:42:00,
2013-03-08 11:52:00,37.0,22.0,-100.00,NE,50,4.0,8.0,54,0.00,,,-99.99,,2013-03-08 16:52:00,
2013-03-08 12:03:00,37.0,22.0,-100.00,NNE,30,4.0,9.0,54,0.00,,,-99.99,,2013-03-08 17:03:00,
2013-03-08 12:11:00,36.0,22.0,-100.00,North,5,6.0,9.0,56,0.00,,,-99.99,,2013-03-08 17:11:00,
2013-03-08 12:21:00,38.0,23.0,-100.00,NNE,25,2.0,6.0,55,0.00,,,-99.99,,2013-03-08 17:21:00,
2013-03-08 12:32:00,38.0,23.0,-100.00,East,80,2.0,6.0,54,0.00,,,-99.99,,2013-03-08 17:32:00,
2013-03-08 12:42:00,38.0,23.0,-100.00,ENE,70,6.0,7.0,55,0.00,,,-99.99,,2013-03-08 17:42:00,
2013-03-08 12:52:00,39.0,24.0,-100.00,NE,35,2.0,4.0,53,0.00,,,-99.99,,2013-03-08 17:52:00,
2013-03-08 13:02:00,38.0,24.0,-100.00,East,80,4.0,6.0,56,0.00,,,-99.99,,2013-03-08 18:02:00,
2013-03-08 13:11:00,40.0,24.0,-100.00,East,95,3.0,6.0,51,0.00,,,-99.99,,2013-03-08 18:11:00,
2013-03-08 13:21:00,38.0,23.0,-100.00,ENE,65,4.0,6.0,53,0.00,,,-99.99,,2013-03-08 18:21:00,
2013-03-08 13:32:00,39.0,23.0,-100.00,East,80,3.0,6.0,53,0.00,,,-99.99,,2013-03-08 18:32:00,
2013-03-08 13:42:00,39.0,24.0,-100.00,NNE,30,3.0,6.0,53,0.00,,,-99.99,,2013-03-08 18:42:00,
2013-03-08 13:52:00,38.0,23.0,-100.00,East,85,3.0,8.0,53,0.00,,,-99.99,,2013-03-08 18:52:00,
2013-03-08 14:01:00,39.0,24.0,-100.00,East,80,2.0,6.0,53,0.00,,,-99.99,,2013-03-08 19:01:00,
2013-03-08 14:11:00,39.0,23.0,-100.00,NE,35,3.0,6.0,52,0.00,,,-99.99,,2013-03-08 19:11:00,
2013-03-08 14:22:00,40.0,25.0,-100.00,NE,35,3.0,7.0,54,0.00,,,-99.99,,2013-03-08 19:22:00,
2013-03-08 14:32:00,40.0,22.0,-100.00,NE,40,1.0,6.0,48,0.00,,,-99.99,,2013-03-08 19:32:00,
2013-03-08 14:42:00,40.0,23.0,-100.00,SE,135,1.0,5.0,50,0.00,,,-99.99,,2013-03-08 19:42:00,
2013-03-08 14:52:00,42.0,24.0,-100.00,East,90,1.0,5.0,49,0.00,,,-99.99,,2013-03-08 19:52:00,
2013-03-08 15:01:00,41.0,25.0,-100.00,East,85,3.0,6.0,51,0.00,,,-99.99,,2013-03-08 20:01:00,
2013-03-08 15:11:00,42.0,25.0,-100.00,East,85,2.0,5.0,52,0.00,,,-99.99,,2013-03-08 20:11:00,
2013-03-08 15:22:00,41.0,24.0,-100.00,NNE,30,1.0,6.0,49,0.00,,,-99.99,,2013-03-08 20:22:00,
2013-03-08 15:32:00,41.0,24.0,-100.00,NNW,335,1.0,6.0,51,0.00,,,-99.99,,2013-03-08 20:32:00,
2013-03-08 15:42:00,42.0,24.0,-100.00,SSE,165,1.0,3.0,48,0.00,,,-99.99,,2013-03-08 20:42:00,
2013-03-08 15:52:00,42.0,24.0,-100.00,South,190,1.0,4.0,48,0.00,,,-99.99,,2013-03-08 20:52:00,
2013-03-08 16:02:00,41.0,24.0,-100.00,SE,125,2.0,5.0,49,0.00,,,-99.99,,2013-03-08 21:02:00,
2013-03-08 16:11:00,41.0,24.0,-100.00,SE,125,4.0,6.0,50,0.00,,,-99.99,,2013-03-08 21:11:00,
2013-03-08 16:22:00,41.0,25.0,-100.00,NE,35,2.0,6.0,51,0.00,,,-99.99,,2013-03-08 21:22:00,
2013-03-08 16:32:00,40.0,24.0,-100.00,East,85,4.0,6.0,51,0.00,,,-99.99,,2013-03-08 21:32:00,
2013-03-08 16:42:00,40.0,23.0,-100.00,North,5,4.0,6.0,50,0.00,,,-99.99,,2013-03-08 21:42:00,
2013-03-08 16:52:00,40.0,23.0,-100.00,North,10,3.0,7.0,51,0.00,,,-99.99,,2013-03-08 21:52:00,
2013-03-08 17:01:00,40.0,23.0,-100.00,North,10,3.0,7.0,51,0.00,,,-99.99,,2013-03-08 22:01:00,
2013-03-08 17:11:00,40.0,24.0,-100.00,NE,55,2.0,6.0,51,0.00,,,-99.99,,2013-03-08 22:11:00,
2013-03-08 17:22:00,40.0,24.0,-100.00,NE,55,2.0,6.0,51,0.00,,,-99.99,,2013-03-08 22:22:00,
2013-03-08 17:32:00,40.0,23.0,-100.00,NE,45,3.0,4.0,49,0.00,,,-99.99,,2013-03-08 22:32:00,
2013-03-08 17:42:00,40.0,24.0,-100.00,NE,35,1.0,4.0,52,0.00,,,-99.99,,2013-03-08 22:42:00,
2013-03-08 17:52:00,40.0,23.0,-100.00,NE,45,2.0,6.0,51,0.00,,,-99.99,,2013-03-08 22:52:00,
2013-03-08 18:02:00,40.0,24.0,-100.00,ENE,65,1.0,4.0,52,0.00,,,-99.99,,2013-03-08 23:02:00,
2013-03-08 18:12:00,40.0,24.0,-100.00,ENE,75,2.0,5.0,53,0.00,,,-99.99,,2013-03-08 23:12:00,
2013-03-08 18:22:00,39.0,24.0,-100.00,East,80,1.0,4.0,55,0.00,,,-99.99,,2013-03-08 23:22:00,
2013-03-08 18:32:00,39.0,25.0,-100.00,East,85,2.0,3.0,56,0.00,,,-99.99,,2013-03-08 23:32:00,
2013-03-08 18:42:00,38.0,24.0,-100.00,NE,50,1.0,3.0,57,0.00,,,-99.99,,2013-03-08 23:42:00,
2013-03-08 18:52:00,38.0,24.0,-100.00,NNE,25,1.0,4.0,57,0.00,,,-99.99,,2013-03-08 23:52:00,
2013-03-08 19:02:00,37.0,25.0,-100.00,North,350,2.0,4.0,61,0.00,,,-99.99,,2013-03-09 00:02:00,
2013-03-08 19:11:00,36.0,25.0,-100.00,WNW,285,1.0,3.0,63,0.00,,,-99.99,,2013-03-09 00:11:00,
2013-03-08 19:22:00,35.0,25.0,-100.00,West,270,0.0,1.0,65,0.00,,,-99.99,,2013-03-09 00:22:00,
2013-03-08 19:32:00,35.0,25.0,-100.00,West,280,0.0,1.0,66,0.00,,,-99.99,,2013-03-09 00:32:00,
2013-03-08 19:42:00,34.0,25.0,-100.00,West,280,0.0,0.0,67,0.00,,,-99.99,,2013-03-09 00:42:00,
2013-03-08 19:52:00,34.0,25.0,-100.00,West,280,0.0,0.0,68,0.00,,,-99.99,,2013-03-09 00:52:00,
2013-03-08 20:02:00,34.0,25.0,-100.00,West,270,0.0,1.0,71,0.00,,,-99.99,,2013-03-09 01:02:00,
2013-03-08 20:12:00,33.0,25.0,-100.00,WSW,255,0.0,0.0,72,0.00,,,-99.99,,2013-03-09 01:12:00,
2013-03-08 20:22:00,33.0,25.0,-100.00,West,260,0.0,0.0,72,0.00,,,-99.99,,2013-03-09 01:22:00,
2013-03-08 20:32:00,33.0,26.0,-100.00,NW,320,0.0,0.0,73,0.00,,,-99.99,,2013-03-09 01:32:00,
2013-03-08 20:42:00,33.0,25.0,-100.00,North,350,0.0,0.0,73,0.00,,,-99.99,,2013-03-09 01:42:00,
2013-03-08 20:51:00,33.0,25.0,-100.00,North,0,1.0,2.0,72,0.00,,,-99.99,,2013-03-09 01:51:00,
2013-03-08 21:01:00,33.0,25.0,-100.00,North,5,0.0,1.0,73,0.00,,,-99.99,,2013-03-09 02:01:00,
2013-03-08 21:11:00,32.0,25.0,-100.00,NE,45,0.0,2.0,76,0.00,,,-99.99,,2013-03-09 02:11:00,
2013-03-08 21:21:00,32.0,25.0,-100.00,North,0,1.0,3.0,76,0.00,,,-99.99,,2013-03-09 02:21:00,
2013-03-08 21:31:00,32.0,25.0,-100.00,North,0,1.0,3.0,76,0.00,,,-99.99,,2013-03-09 02:31:00,
2013-03-08 21:41:00,32.0,25.0,-100.00,ENE,60,0.0,3.0,76,0.00,,,-99.99,,2013-03-09 02:41:00,
2013-03-08 21:51:00,31.0,25.0,-100.00,NNE,30,0.0,1.0,77,0.00,,,-99.99,,2013-03-09 02:51:00,
2013-03-08 22:01:00,31.0,25.0,-100.00,North,5,0.0,1.0,77,0.00,,,-99.99,,2013-03-09 03:01:00,
2013-03-08 22:11:00,31.0,25.0,-100.00,North,5,0.0,1.0,77,0.00,,,-99.99,,2013-03-09 03:11:00,
2013-03-08 22:21:00,31.0,25.0,-100.00,NNE,30,0.0,1.0,78,0.00,,,-99.99,,2013-03-09 03:21:00,
2013-03-08 22:31:00,30.0,25.0,-100.00,East,85,0.0,2.0,80,0.00,,,-99.99,,2013-03-09 03:31:00,
2013-03-08 22:41:00,30.0,25.0,-100.00,East,85,0.0,2.0,80,0.00,,,-99.99,,2013-03-09 03:41:00,
2013-03-08 22:52:00,30.0,25.0,-100.00,East,85,0.0,2.0,80,0.00,,,-99.99,,2013-03-09 03:52:00,
2013-03-08 23:01:00,29.0,24.0,-100.00,NE,35,0.0,2.0,81,0.00,,,-99.99,,2013-03-09 04:01:00,
2013-03-08 23:11:00,29.0,24.0,-100.00,NNE,20,0.0,2.0,82,0.00,,,-99.99,,2013-03-09 04:11:00,
2013-03-08 23:22:00,29.0,24.0,-100.00,ENE,60,0.0,1.0,81,0.00,,,-99.99,,2013-03-09 04:22:00,
2013-03-08 23:32:00,29.0,24.0,-100.00,ENE,65,0.0,2.0,82,0.00,,,-99.99,,2013-03-09 04:32:00,
2013-03-08 23:42:00,29.0,24.0,-100.00,NNE,15,1.0,4.0,82,0.00,,,-99.99,,2013-03-09 04:42:00,
2013-03-08 23:51:00,29.0,24.0,-100.00,NNE,30,0.0,1.0,81,0.00,,,-99.99,,2013-03-09 04:51:00,